Simultaneous Nadir Overpasses (SNOs) Predictions

Prediction of SNOs between LANDSAT-8 and METOP-B Satellite Orbit:

Table of predicted SNOs for the next 14.0 days since TLE Epoch: 11/13/2015
Index Date (LANDSAT-8) Time (LANDSAT-8) Lat,Lon (LANDSAT-8) SZA (LANDSAT-8 ) Date (METOP-B) Time (METOP-B) Lat,Lon (METOP-B) SZA (METOP-B ) Distance(km) Time Diff (sec)
1 11/15/2015 01:20:41 81.16,-159.62 101.91 11/15/2015 01:20:20 81.16,-159.63 101.90 0.21 21
2 11/15/2015 02:10:07 -81.18, 8.31 78.04 11/15/2015 02:10:59 -81.19, 8.36 78.01 0.81 52
3 11/17/2015 20:54:57 81.17, -93.04 102.62 11/17/2015 20:54:39 81.18, -92.86 102.63 3.09 18
4 11/17/2015 21:44:23 -81.19, 74.92 77.33 11/17/2015 21:45:19 -81.19, 74.78 77.32 2.42 56
5 11/20/2015 16:29:12 81.18, -26.56 103.27 11/20/2015 16:28:58 81.17, -26.52 103.26 0.71 14
6 11/20/2015 17:18:38 -81.20, 141.42 76.68 11/20/2015 17:19:37 -81.20, 141.54 76.64 2.02 59
7 11/23/2015 12:03:28 81.17, 39.82 103.85 11/23/2015 12:03:18 81.17, 39.78 103.84 0.81 10
8 11/23/2015 12:52:54 -81.19,-152.17 76.10 11/23/2015 12:53:57 -81.19,-152.13 76.06 0.79 63
9 11/26/2015 07:37:44 81.16, 106.11 104.36 11/26/2015 07:37:38 81.16, 106.03 104.35 1.42 6




NCC Satellite Simultaneous Nadir Overpasses (SNOs) Prediction Service
